TimeEST,TemperatureF,Dew PointF,Humidity,Sea Level PressureIn,VisibilityMPH,Wind Direction,Wind SpeedMPH,Gust SpeedMPH,PrecipitationIn,Events,Conditions,WindDirDegrees,DateUTC
12:54 AM,34.0,33.1,96,29.78,4.0,WNW,5.8,-,N/A,,Overcast,300,2013-02-14 05:54:00
1:54 AM,34.0,33.1,96,29.81,4.0,West,5.8,-,N/A,,Mostly Cloudy,280,2013-02-14 06:54:00
2:54 AM,33.1,32.0,96,29.83,4.0,WSW,4.6,-,N/A,,Partly Cloudy,250,2013-02-14 07:54:00
3:54 AM,32.0,30.9,96,29.85,4.0,WSW,4.6,-,N/A,,Partly Cloudy,240,2013-02-14 08:54:00
4:54 AM,32.0,30.2,93,29.88,4.0,SSW,3.5,-,N/A,,Partly Cloudy,210,2013-02-14 09:54:00
5:54 AM,30.9,30.0,96,29.91,5.0,West,6.9,-,N/A,,Clear,280,2013-02-14 10:54:00
6:54 AM,30.9,30.0,96,29.93,4.0,West,3.5,-,N/A,,Scattered Clouds,270,2013-02-14 11:54:00
7:54 AM,33.1,30.0,89,29.96,9.0,WNW,5.8,-,N/A,,Partly Cloudy,290,2013-02-14 12:54:00
8:54 AM,36.0,28.9,76,29.98,10.0,WNW,9.2,-,N/A,,Partly Cloudy,290,2013-02-14 13:54:00
9:54 AM,37.9,28.9,70,30.01,10.0,West,10.4,-,N/A,,Partly Cloudy,280,2013-02-14 14:54:00
10:54 AM,41.0,28.9,62,30.01,10.0,WNW,8.1,-,N/A,,Clear,290,2013-02-14 15:54:00
11:54 AM,43.0,28.0,56,30.00,10.0,Variable,3.5,-,N/A,,Clear,0,2013-02-14 16:54:00
12:54 PM,45.0,27.0,49,29.99,10.0,WNW,8.1,-,N/A,,Clear,300,2013-02-14 17:54:00
1:54 PM,46.0,24.1,42,29.98,10.0,WNW,6.9,-,N/A,,Partly Cloudy,300,2013-02-14 18:54:00
2:54 PM,48.9,19.0,31,29.97,10.0,Calm,Calm,-,N/A,,Scattered Clouds,0,2013-02-14 19:54:00
3:54 PM,48.0,19.9,33,29.98,10.0,West,4.6,-,N/A,,Scattered Clouds,260,2013-02-14 20:54:00
4:54 PM,46.9,25.0,42,29.96,9.0,WNW,4.6,-,N/A,,Scattered Clouds,290,2013-02-14 21:54:00
5:54 PM,43.0,27.0,53,29.99,8.0,SE,5.8,-,N/A,,Scattered Clouds,130,2013-02-14 22:54:00
6:54 PM,39.9,27.0,60,30.00,8.0,SSE,3.5,-,N/A,,Scattered Clouds,150,2013-02-14 23:54:00
7:54 PM,37.9,28.0,68,30.01,9.0,Calm,Calm,-,N/A,,Clear,0,2013-02-15 00:54:00
8:54 PM,35.1,28.0,76,30.01,9.0,Calm,Calm,-,N/A,,Clear,0,2013-02-15 01:54:00
9:54 PM,35.1,28.0,76,30.01,9.0,Calm,Calm,-,N/A,,Clear,0,2013-02-15 02:54:00
10:54 PM,32.0,28.0,85,30.01,8.0,Calm,Calm,-,N/A,,Clear,0,2013-02-15 03:54:00
11:54 PM,33.1,28.0,82,30.02,10.0,Calm,Calm,-,N/A,,Partly Cloudy,0,2013-02-15 04:54:00